H1 CPF 2 NER 2024 10 19 9 293 01 glonass106 H2 0705201 9106 32275 2024 10 19 0 0 0 2024 10 22 23 45 0 900 1 1 0 0 0 1 H9 10 0 60602 0.00000 0 -5062075.303 -10106253.615 -22861805.003 10 0 60602 900.00000 0 -3458679.367 -12372799.252 -22032665.755 10 0 60602 1800.00000 0 -2101281.592 -14646477.589 -20775474.341 10 0 60602 2700.00000 0 -1006928.887 -16859415.952 -19114701.484 10 0 60602 3600.00000 0 -179725.759 -18943280.505 -17082649.951 10 0 60602 4500.00000 0 389106.990 -20832007.706 -14718824.987 10 0 60602 5400.00000 0 720624.688 -22464457.233 -12069165.388 10 0 60602 6300.00000 0 847029.232 -23786875.867 -9185150.050 10 0 60602 7200.00000 0 810066.365 -24755069.597 -6122797.268 10 0 60602 8100.00000 0 659018.387 -25336193.345 -2941576.220 10 0 60602 9000.00000 0 448377.944 -25510083.642 296748.169 10 0 60602 9900.00000 0 235301.880 -25270078.698 3529314.413 10 0 60602 10800.00000 0 76953.324 -24623291.772 6693384.208 10 0 60602 11700.00000 0 27844.851 -23590326.667 9727558.952 10 0 60602 12600.00000 0 137295.386 -22204447.494 12572969.248 10 0 60602 13500.00000 0 447108.599 -20510237.704 15174414.355 10 0 60602 14400.00000 0 989571.179 -18561804.578 17481429.651 10 0 60602 15300.00000 0 1785855.761 -16420604.257 19449261.651 10 0 60602 16200.00000 0 2844896.345 -14152978.010 21039732.152 10 0 60602 17100.00000 0 4162784.172 -11827502.170 22221975.273 10 0 60602 18000.00000 0 5722710.359 -9512261.759 22973033.628 10 0 60602 18900.00000 0 7495458.781 -7272160.728 23278302.554 10 0 60602 19800.00000 0 9440429.890 -5166379.994 23131814.149 10 0 60602 20700.00000 0 11507154.037 -3246088.301 22536355.708 10 0 60602 21600.00000 0 13637232.525 -1552500.350 21503420.177 10 0 60602 22500.00000 0 15766626.780 -115362.225 20052989.188 10 0 60602 23400.00000 0 17828201.250 1048073.441 18213152.316 10 0 60602 24300.00000 0 19754414.912 1933540.499 16019569.174 10 0 60602 25200.00000 0 21480049.622 2549700.516 13514783.958 10 0 60602 26100.00000 0 22944861.573 2917535.187 10747404.964 10 0 60602 27000.00000 0 24096044.929 3069215.994 7771164.363 10 0 60602 27900.00000 0 24890404.120 3046499.204 4643876.029 10 0 60602 28800.00000 0 25296143.162 2898714.415 1426311.553 10 0 60602 29700.00000 0 25294196.218 2680432.266 -1818983.577 10 0 60602 30600.00000 0 24879042.803 2448910.664 -5028910.240 10 0 60602 31500.00000 0 24058972.710 2261428.482 -8141047.988 10 0 60602 32400.00000 0 22855788.988 2172620.545 -11094874.697 10 0 60602 33300.00000 0 21303961.124 2231927.787 -13832949.107 10 0 60602 34200.00000 0 19449263.848 2481271.529 -16302032.503 10 0 60602 35100.00000 0 17346958.721 2953051.265 -18454127.245 10 0 60602 36000.00000 0 15059594.865 3668551.515 -20247411.622 10 0 60602 36900.00000 0 12654521.178 4636825.873 -21647052.801 10 0 60602 37800.00000 0 10201214.201 5854106.070 -22625882.215 10 0 60602 38700.00000 0 7768533.319 7303761.645 -23164920.629 10 0 60602 39600.00000 0 5422017.715 8956812.594 -23253743.113 10 0 60602 40500.00000 0 3221337.384 10772974.061 -22890677.349 10 0 60602 41400.00000 0 1218003.810 12702189.904 -22082831.836 10 0 60602 42300.00000 0 -546565.197 14686591.395 -20845953.859 10 0 60602 43200.00000 0 -2042546.964 16662799.602 -19204120.169 10 0 60602 44100.00000 0 -3252720.441 18564475.579 -17189266.496 10 0 60602 45000.00000 0 -4172937.136 20325012.058 -14840565.043 10 0 60602 45900.00000 0 -4812038.365 21880254.308 -12203661.953 10 0 60602 46800.00000 0 -5191223.840 23171136.583 -9329789.456 10 0 60602 47700.00000 0 -5342899.578 24146123.852 -6274769.892 10 0 60602 48600.00000 0 -5309054.948 24763356.692 -3097930.940 10 0 60602 49500.00000 0 -5139238.403 24992409.485 139046.841 10 0 60602 50400.00000 0 -4888218.264 24815588.254 3373327.584 10 0 60602 51300.00000 0 -4613428.103 24228713.778 6542139.407 10 0 60602 52200.00000 0 -4372305.254 23241357.144 9583991.594 10 0 60602 53100.00000 0 -4219635.336 21876517.897 12439865.891 10 0 60602 54000.00000 0 -4205015.280 20169758.224 15054358.851 10 0 60602 54900.00000 0 -4370542.234 18167829.291 17376753.201 10 0 60602 55800.00000 0 -4748826.078 15926846.967 19361997.739 10 0 60602 56700.00000 0 -5361409.603 13510092.779 20971577.226 10 0 60602 57600.00000 0 -6217663.288 10985531.327 22174255.902 10 0 60602 58500.00000 0 -7314201.709 8423146.989 22946680.773 10 0 60602 59400.00000 0 -8634846.910 5892210.023 23273833.443 10 0 60602 60300.00000 0 -10151141.258 3458584.905 23149322.087 10 0 60602 61200.00000 0 -11823389.483 1182191.948 22575508.024 10 0 60602 62100.00000 0 -13602187.570 -885273.197 21563464.355 10 0 60602 63000.00000 0 -15430375.859 -2702268.205 20132767.084 10 0 60602 63900.00000 0 -17245335.886 -4238901.442 18311122.206 10 0 60602 64800.00000 0 -18981535.907 -5477936.363 16133835.252 10 0 60602 65700.00000 0 -20573219.398 -6415261.760 13643132.742 10 0 60602 66600.00000 0 -21957124.357 -7059808.738 10887347.961 10 0 60602 67500.00000 0 -23075119.525 -7432918.570 7919986.184 10 0 60602 68400.00000 0 -23876646.704 -7567188.532 4798687.047 10 0 60602 69300.00000 0 -24320866.057 -7504844.935 1584104.106 10 0 60602 70200.00000 0 -24378413.476 -7295712.663 -1661276.573 10 0 60602 71100.00000 0 -24032695.249 -6994867.709 -4874355.396 10 0 60602 72000.00000 0 -23280664.672 -6660072.844 -7992651.482 10 0 60602 72900.00000 0 -22133047.109 -6349105.810 -10955523.451 10 0 60602 73800.00000 0 -20614003.360 -6117094.105 -13705354.271 10 0 60602 74700.00000 0 -18760244.982 -6013970.094 -16188676.403 10 0 60602 75600.00000 0 -16619638.394 -6082155.024 -18357214.813 10 0 60602 76500.00000 0 -14249356.104 -6354570.660 -20168827.312 10 0 60602 77400.00000 0 -11713652.467 -6853063.246 -21588323.812 10 0 60602 78300.00000 0 -9081356.905 -7587306.883 -22588148.760 10 0 60602 79200.00000 0 -6423189.185 -8554233.068 -23148913.825 10 0 60602 80100.00000 0 -3809008.578 -9738010.833 -23259770.920 10 0 60602 81000.00000 0 -1305111.100 -11110578.736 -22918618.813 10 0 60602 81900.00000 0 1028313.184 -12632706.753 -22132139.751 10 0 60602 82800.00000 0 3139457.728 -14255543.867 -20915665.736 10 0 60602 83700.00000 0 4986818.148 -15922586.808 -19292877.288 10 0 60602 84600.00000 0 6540673.246 -17571987.753 -17295340.639 10 0 60602 85500.00000 0 7784068.013 -19139104.512 -14961892.351 10 0 60603 0.00000 0 8713259.025 -20559186.409 -12337883.488 10 0 60603 900.00000 0 9337605.579 -21770084.127 -9474296.452 10 0 60603 1800.00000 0 9678911.559 -22714868.050 -6426755.181 10 0 60603 2700.00000 0 9770248.747 -23344247.763 -3254443.237 10 0 60603 3600.00000 0 9654311.154 -23618689.188 -18954.298 10 0 60603 4500.00000 0 9381371.378 -23510141.123 3216903.803 10 0 60603 5400.00000 0 9006926.063 -23003298.452 6390327.876 10 0 60603 6300.00000 0 8589130.561 -22096348.821 9439737.203 10 0 60603 7200.00000 0 8186131.650 -20801171.255 12305966.618 10 0 60603 8100.00000 0 7853411.288 -19142978.146 14933411.704 10 0 60603 9000.00000 0 7641253.702 -17159415.257 17271104.054 10 0 60603 9900.00000 0 7592442.788 -14899156.997 19273696.018 10 0 60603 10800.00000 0 7740286.970 -12420055.086 20902336.288 10 0 60603 11700.00000 0 8107054.798 -9786917.194 22125419.895 10 0 60603 12600.00000 0 8702887.373 -7069007.300 22919198.577 10 0 60603 13500.00000 0 9525233.712 -4337370.907 23268240.217 10 0 60603 14400.00000 0 10558833.391 -1662095.336 23165728.768 10 0 60603 15300.00000 0 11776248.026 890382.061 22613599.002 10 0 60603 16200.00000 0 13138920.310 3259806.941 21622503.363 10 0 60603 17100.00000 0 14598717.331 5394377.963 20211611.220 10 0 60603 18000.00000 0 16099894.586 7252660.214 18408243.821 10 0 60603 18900.00000 0 17581399.405 8805063.181 16247351.310 10 0 60603 19800.00000 0 18979418.027 10034822.377 13770841.110 10 0 60603 20700.00000 0 20230059.961 10938444.209 11026769.936 10 0 60603 21600.00000 0 21272067.149 11525596.062 8068414.469 10 0 60603 22500.00000 0 22049433.937 11818446.801 4953238.271 10 0 60603 23400.00000 0 22513827.164 11850485.976 1741774.853 10 0 60603 24300.00000 0 22626703.785 11664872.149 -1503551.261 10 0 60603 25200.00000 0 22361035.931 11312380.729 -4719642.230 10 0 60603 26100.00000 0 21702569.715 10849038.805 -7843959.004 10 0 60603 27000.00000 0 20650563.739 10333547.833 -10815743.187 10 0 60603 27900.00000 0 19217975.278 9824604.085 -13577204.143 10 0 60603 28800.00000 0 17431085.466 9378231.084 -16074647.538 10 0 60603 29700.00000 0 15328578.610 9045237.663 -18259522.844 10 0 60603 30600.00000 0 12960113.724 8868909.783 -20089369.136 10 0 60603 31500.00000 0 10384447.799 8883034.201 -21528640.675 10 0 60603 32400.00000 0 7667189.021 9110337.804 -22549396.374 10 0 60603 33300.00000 0 4878273.480 9561408.712 -23131840.099 10 0 60603 34200.00000 0 2089270.351 10234144.792 -23264701.696 10 0 60603 35100.00000 0 -629372.605 11113752.907 -22945451.855 10 0 60603 36000.00000 0 -3211029.134 12173299.060 -22180347.069 10 0 60603 36900.00000 0 -5595428.508 13374786.382 -20984304.179 10 0 60603 37800.00000 0 -7730918.950 14670715.801 -19380607.184 10 0 60603 38700.00000 0 -9576367.363 16006063.980 -17400452.097 10 0 60603 39600.00000 0 -11102617.403 17320595.571 -15082338.723 10 0 60603 40500.00000 0 -12293446.494 18551412.761 -12471321.074 10 0 60603 41400.00000 0 -13145983.259 19635635.081 -9618130.876 10 0 60603 42300.00000 0 -13670569.387 20513096.831 -6578191.174 10 0 60603 43200.00000 0 -13890073.215 21128948.676 -3410539.145 10 0 60603 44100.00000 0 -13838685.256 21436053.885 -176679.139 10 0 60603 45000.00000 0 -13560247.594 21397078.252 3060611.645 10 0 60603 45900.00000 0 -13106188.606 20986185.561 6238501.433 10 0 60603 46800.00000 0 -12533150.927 20190267.048 9295322.336 10 0 60603 47700.00000 0 -11900413.362 19009652.843 12171765.167 10 0 60603 48600.00000 0 -11267215.935 17458275.143 14812027.454 10 0 60603 49500.00000 0 -10690101.081 15563275.734 17164892.536 10 0 60603 50400.00000 0 -10220383.149 13364073.739 19184719.090 10 0 60603 51300.00000 0 -9901852.762 10910931.820 20832322.354 10 0 60603 52200.00000 0 -9768812.553 8263079.821 22075730.498 10 0 60603 53100.00000 0 -9844526.884 5486473.133 22890802.026 10 0 60603 54000.00000 0 -10140150.703 2651277.995 23261692.722 10 0 60603 54900.00000 0 -10654182.774 -170812.831 23181163.474 10 0 60603 55800.00000 0 -11372466.625 -2909323.595 22650723.126 10 0 60603 56700.00000 0 -12268739.782 -5497685.484 21680603.514 10 0 60603 57600.00000 0 -13305709.022 -7875762.230 20289566.828 10 0 60603 58500.00000 0 -14436607.356 -9992107.352 18504548.435 10 0 60603 59400.00000 0 -15607168.275 -11805859.924 16360141.408 10 0 60603 60300.00000 0 -16757935.073 -13288200.602 13897931.875 10 0 60603 61200.00000 0 -17826808.769 -14423307.682 11165697.366 10 0 60603 62100.00000 0 -18751727.722 -15208773.753 8216483.014 10 0 60603 63000.00000 0 -19473366.135 -15655465.965 5107573.100 10 0 60603 63900.00000 0 -19937737.363 -15786836.263 1899377.734 10 0 60603 64800.00000 0 -20098591.639 -15637711.169 -1345743.565 10 0 60603 65700.00000 0 -19919506.190 -15252612.713 -4564698.197 10 0 60603 66600.00000 0 -19375578.494 -14683682.097 -7694892.413 10 0 60603 67500.00000 0 -18454650.171 -13988294.537 -10675454.203 10 0 60603 68400.00000 0 -17158008.732 -13226466.917 -13448422.597 10 0 60603 69300.00000 0 -15500536.644 -12458168.627 -15959879.528 10 0 60603 70200.00000 0 -13510300.463 -11740649.986 -18161001.729 10 0 60603 71100.00000 0 -11227596.543 -11125901.728 -20009011.878 10 0 60603 72000.00000 0 -8703492.651 -10658353.278 -21468010.401 10 0 60603 72900.00000 0 -5997926.043 -10372907.193 -22509671.888 10 0 60603 73800.00000 0 -3177436.942 -10293392.747 -23113792.953 10 0 60603 74700.00000 0 -312631.588 -10431503.731 -23268681.263 10 0 60603 75600.00000 0 2524519.956 -10786265.041 -22971378.693 10 0 60603 76500.00000 0 5263439.307 -11344050.263 -22227714.696 10 0 60603 77400.00000 0 7837634.576 -12079149.284 -21052189.204 10 0 60603 78300.00000 0 10187223.208 -12954861.855 -19467687.563 10 0 60603 79200.00000 0 12261178.796 -13925070.935 -17505033.144 10 0 60603 80100.00000 0 14019209.344 -14936229.535 -15202386.320 10 0 60603 81000.00000 0 15433189.897 -15929677.350 -12604501.424 10 0 60603 81900.00000 0 16488091.011 -16844189.635 -9761856.009 10 0 60603 82800.00000 0 17182365.584 -17618650.863 -6729669.305 10 0 60603 83700.00000 0 17527779.237 -18194740.488 -3566828.919 10 0 60603 84600.00000 0 17548692.707 -18519517.462 -334746.691 10 0 60603 85500.00000 0 17280827.650 -18547794.406 2903833.885 10 0 60604 0.00000 0 16769568.967 -18244201.194 6086055.077 10 0 60604 900.00000 0 16067875.744 -17584850.484 9150165.046 10 0 60604 1800.00000 0 15233890.304 -16558535.167 12036712.633 10 0 60604 2700.00000 0 14328345.664 -15167406.382 14689699.285 10 0 60604 3600.00000 0 13411881.531 -13427103.319 17057661.688 10 0 60604 4500.00000 0 12542381.697 -11366328.572 19094666.049 10 0 60604 5400.00000 0 11772444.780 -9025885.942 20761194.959 10 0 60604 6300.00000 0 11147094.470 -6457219.902 22024910.154 10 0 60604 7200.00000 0 10701825.200 -3720516.541 22861276.938 10 0 60604 8100.00000 0 10461065.084 -882443.882 23254038.674 10 0 60604 9000.00000 0 10437120.452 1986375.747 23195532.505 10 0 60604 9900.00000 0 10629646.296 4814057.429 22686840.360 10 0 60604 10800.00000 0 11025664.978 7530198.934 21737772.203 10 0 60604 11700.00000 0 11600132.799 10068566.628 20366681.541 10 0 60604 12600.00000 0 12317031.116 12369611.367 18600116.180 10 0 60604 13500.00000 0 13130936.762 14382710.568 16472310.277 10 0 60604 14400.00000 0 13989006.313 16068043.770 14024526.713 10 0 60604 15300.00000 0 14833291.186 17398023.925 11304261.782 10 0 60604 16200.00000 0 15603286.338 18358225.041 8364326.934 10 0 60604 17100.00000 0 16238605.172 18947767.684 5261824.959 10 0 60604 18000.00000 0 16681667.507 19179146.496 2057040.310 10 0 60604 18900.00000 0 16880286.591 19077507.376 -1187734.775 10 0 60604 19800.00000 0 16790045.068 18679405.202 -4409415.186 10 0 60604 20700.00000 0 16376358.512 18031095.022 -7545354.651 10 0 60604 21600.00000 0 15616138.221 17186429.476 -10534569.589 10 0 60604 22500.00000 0 14498981.875 16204451.878 -13318930.569 10 0 60604 23400.00000 0 13027840.654 15146787.356 -15844297.486 10 0 60604 24300.00000 0 11219133.612 14074942.851 -18061575.825 10 0 60604 25200.00000 0 9102303.451 13047630.479 -19927673.185 10 0 60604 26100.00000 0 6718831.486 12118227.582 -21406337.311 10 0 60604 27000.00000 0 4120752.295 11332480.702 -22468859.481 10 0 60604 27900.00000 0 1368729.468 10726550.181 -23094629.906 10 0 60604 28800.00000 0 -1470227.754 10325477.464 -23271534.732 10 0 60604 29700.00000 0 -4325312.360 10142139.192 -22996187.432 10 0 60604 30600.00000 0 -7124626.473 10176731.558 -22273990.523 10 0 60604 31500.00000 0 -9797935.214 10416806.041 -21119026.763 10 0 60604 32400.00000 0 -12279353.690 10837854.431 -19553782.197 10 0 60604 33300.00000 0 -14509856.080 11404418.006 -17608706.510 10 0 60604 34200.00000 0 -16439503.233 12071673.716 -15321619.257 10 0 60604 35100.00000 0 -18029296.921 12787430.212 -12736973.423 10 0 60604 36000.00000 0 -19252584.466 13494449.271 -9904990.511 10 0 60604 36900.00000 0 -20095956.142 14132994.531 -6880683.917 10 0 60604 37800.00000 0 -20559599.011 14643499.751 -3722789.564 10 0 60604 38700.00000 0 -20657093.538 14969243.811 -492624.606 10 0 60604 39600.00000 0 -20414662.665 15058919.277 2747103.417 10 0 60604 40500.00000 0 -19869905.985 14868985.884 5933513.685 10 0 60604 41400.00000 0 -19070073.175 14365709.309 9004771.657 10 0 60604 42300.00000 0 -18069950.115 13526798.877 11901287.244 10 0 60604 43200.00000 0 -16929447.175 12342574.755 14566868.341 10 0 60604 44100.00000 0 -15710991.486 10816614.900 16949807.503 10 0 60604 45000.00000 0 -14476832.944 8965853.852 19003880.948 10 0 60604 45900.00000 0 -13286377.037 6820128.307 20689240.962 10 0 60604 46800.00000 0 -12193656.216 4421187.415 21973184.977 10 0 60604 47700.00000 0 -11245045.507 1821207.902 22830786.944 10 0 60604 48600.00000 0 -10477317.698 -919125.365 23245379.290 10 0 60604 49500.00000 0 -9916119.171 -3732894.894 23208876.495 10 0 60604 50400.00000 0 -9574929.909 -6549488.889 22721934.184 10 0 60604 51300.00000 0 -9454551.031 -9297298.219 21793940.582 10 0 60604 52200.00000 0 -9543141.269 -11906461.222 20442840.138 10 0 60604 53100.00000 0 -9816800.966 -14311543.253 18694792.212 10 0 60604 54000.00000 0 -10240679.262 -16454040.427 16583670.688 10 0 60604 54900.00000 0 -10770558.229 -18284603.915 14150413.395 10 0 60604 55800.00000 0 -11354847.527 -19764892.489 11442233.196 10 0 60604 56700.00000 0 -11936905.729 -20868976.234 8511705.356 10 0 60604 57600.00000 0 -12457590.369 -21584232.875 5415748.424 10 0 60604 58500.00000 0 -12857928.810 -21911699.263 2214518.263 10 0 60604 59400.00000 0 -13081796.584 -21865863.458 -1029763.228 10 0 60604 60300.00000 0 -13078489.204 -21473906.377 -4254021.588 10 0 60604 61200.00000 0 -12805077.741 -20774425.286 -7395561.232 10 0 60604 62100.00000 0 -12228447.439 -19815693.414 -10393290.254 10 0 60604 63000.00000 0 -11326932.000 -18653529.614 -13188913.979 10 0 60604 63900.00000 0 -10091473.300 -17348868.560 -15728073.370 10 0 60604 64800.00000 0 -8526256.401 -15965134.528 -17961405.577 10 0 60604 65700.00000 0 -6648791.988 -14565529.963 -19845505.722 10 0 60604 66600.00000 0 -4489441.715 -13210353.460 -21343771.050 10 0 60604 67500.00000 0 -2090405.440 -11954460.190 -22427111.185 10 0 60604 68400.00000 0 495788.108 -10844971.521 -23074511.012 10 0 60604 69300.00000 0 3208224.877 -9919329.844 -23273435.624 10 0 60604 70200.00000 0 5979902.831 -9203779.724 -23020069.962 10 0 60604 71100.00000 0 8740288.014 -8712338.521 -22319388.930 10 0 60604 72000.00000 0 11418023.488 -8446298.826 -21185056.949 10 0 60604 72900.00000 0 13943679.030 -8394282.770 -19639159.158 10 0 60604 73800.00000 0 16252427.815 -8532844.979 -17711769.565 10 0 60604 74700.00000 0 18286539.290 -8827598.025 -15440364.550 10 0 60604 75600.00000 0 19997585.122 -9234812.204 -12869093.061 10 0 60604 76500.00000 0 21348267.013 -9703421.616 -10047917.543 10 0 60604 77400.00000 0 22313790.906 -10177351.385 -7031642.287 10 0 60604 78300.00000 0 22882731.021 -10598067.354 -3878848.060 10 0 60604 79200.00000 0 23057348.535 -10907240.215 -650753.761 10 0 60604 80100.00000 0 22853352.482 -11049411.152 2589972.574 10 0 60604 81000.00000 0 22299113.855 -10974546.095 5780430.172 10 0 60604 81900.00000 0 21434366.791 -10640370.349 8858705.516 10 0 60604 82800.00000 0 20308452.115 -10014384.657 11765072.104 10 0 60604 83700.00000 0 18978177.656 -9075477.240 14443146.665 10 0 60604 84600.00000 0 17505385.524 -7815063.309 16840979.573 10 0 60604 85500.00000 0 15954328.680 -6237703.457 18912058.534 10 0 60605 0.00000 0 14388966.880 -4361174.218 20616206.441 10 0 60605 900.00000 0 12870294.246 -2215985.748 21920357.347 10 0 60605 1800.00000 0 11453812.044 155631.874 22799193.887 10 0 60605 2700.00000 0 10187249.089 2701236.090 23235637.364 10 0 60605 3600.00000 0 9108626.633 5360109.276 23221179.022 10 0 60605 4500.00000 0 8244747.258 8065547.839 22756047.242 10 0 60605 5400.00000 0 7610170.593 10747409.092 21849207.207 10 0 60605 6300.00000 0 7206718.309 13334811.310 20518192.693 10 0 60605 7200.00000 0 7023528.872 15758875.785 18788772.716 10 0 60605 8100.00000 0 7037659.578 17955397.698 16694458.749 10 0 60605 9000.00000 0 7215210.573 19867335.209 14275861.250 10 0 60605 9900.00000 0 7512923.539 21447013.356 11579907.185 10 0 60605 10800.00000 0 7880187.716 22657950.894 8658933.054 10 0 60605 11700.00000 0 8261368.499 23476233.687 5569670.518 10 0 60605 12600.00000 0 8598360.016 23891377.015 2372144.168 10 0 60605 13500.00000 0 8833253.272 23906640.562 -871497.104 10 0 60605 14400.00000 0 8911006.322 23538782.799 -4098192.058 10 0 60605 15300.00000 0 8782002.583 22817265.218 -7245198.244 10 0 60605 16200.00000 0 8404387.939 21782940.115 -10251317.654 10 0 60605 17100.00000 0 7746086.649 20486277.569 -13058092.359 10 0 60605 18000.00000 0 6786409.588 18985206.726 -15610946.101 10 0 60605 18900.00000 0 5517185.711 17342662.817 -17860249.155 10 0 60605 19800.00000 0 3943367.838 15623943.566 -19762285.369 10 0 60605 20700.00000 0 2083086.149 13893986.577 -21280102.466 10 0 60605 21600.00000 0 -32853.890 12214682.278 -22384229.191 10 0 60605 22500.00000 0 -2362009.072 10642335.186 -23053245.663 10 0 60605 23400.00000 0 -4851828.849 9225379.751 -23274196.245 10 0 60605 24300.00000 0 -7441615.440 8002445.983 -23042837.392 10 0 60605 25200.00000 0 -10064832.523 7000855.158 -22363716.095 10 0 60605 26100.00000 0 -12651666.911 6235607.706 -21250077.759 10 0 60605 27000.00000 0 -15131737.081 5708904.600 -19723605.542 10 0 60605 27900.00000 0 -17436836.302 5410221.156 -17813996.318 10 0 60605 28800.00000 0 -19503596.628 5316928.998 -15558381.520 10 0 60605 29700.00000 0 -21275963.252 5395438.904 -13000604.028 10 0 60605 30600.00000 0 -22707376.568 5602815.466 -10190365.045 10 0 60605 31500.00000 0 -23762571.405 5888794.596 -7182257.501 10 0 60605 32400.00000 0 -24418918.812 6198118.045 -4034704.717 10 0 60605 33300.00000 0 -24667254.967 6473085.730 -808825.061 10 0 60605 34200.00000 0 -24512163.113 6656217.496 2432755.212 10 0 60605 35100.00000 0 -23971697.468 6692911.385 5627117.645 10 0 60605 36000.00000 0 -23076561.354 6533985.669 8712272.041 10 0 60605 36900.00000 0 -21868774.674 6137996.856 11628357.781 10 0 60605 37800.00000 0 -20399887.150 5473235.447 14318802.727 10 0 60605 38700.00000 0 -18728812.624 4519314.740 16731417.309 10 0 60605 39600.00000 0 -16919375.367 3268285.232 18819402.864 10 0 60605 40500.00000 0 -15037671.110 1725226.968 20542255.112 10 0 60605 41400.00000 0 -13149352.958 -91705.962 21866545.820 10 0 60605 42300.00000 0 -11316955.210 -2151791.782 22766568.040 10 0 60605 43200.00000 0 -9597366.288 -4412778.387 23224832.998 10 0 60605 44100.00000 0 -8039555.556 -6822409.850 23232409.356 10 0 60605 45000.00000 0 -6682648.208 -9320379.923 22789098.517 10 0 60605 45900.00000 0 -5554427.865 -11840632.670 21903442.483 10 0 60605 46800.00000 0 -4670328.753 -14313915.844 20592563.819 10 0 60605 47700.00000 0 -4032959.059 -16670481.900 18881840.262 10 0 60605 48600.00000 0 -3632174.973 -18842825.143 16804419.569 10 0 60605 49500.00000 0 -3445701.960 -20768341.623 14400583.161 10 0 60605 50400.00000 0 -3440276.894 -22391801.154 11716970.127 10 0 60605 51300.00000 0 -3573262.757 -23667528.332 8805675.961 10 0 60605 52200.00000 0 -3794667.563 -24561201.183 5723242.990 10 0 60605 53100.00000 0 -4049481.915 -25051191.812 2529561.928 10 0 60605 54000.00000 0 -4280235.880 -25129392.512 -713294.044 10 0 60605 54900.00000 0 -4429666.342 -24801492.289 -3942279.713 10 0 60605 55800.00000 0 -4443381.067 -24086692.006 -7094608.617 10 0 60605 56700.00000 0 -4272405.722 -23016870.025 -10108979.565 10 0 60605 57600.00000 0 -3875504.901 -21635233.563 -12926774.286 10 0 60605 58500.00000 0 -3221177.839 -19994512.718 -15493202.188 10 0 60605 59400.00000 0 -2289243.283 -18154773.475 -17758369.410 10 0 60605 60300.00000 0 -1071945.482 -16180941.933 -19678251.053 10 0 60605 61200.00000 0 425466.419 -14140144.068 -21215547.516 10 0 60605 62100.00000 0 2184710.947 -12098972.804 -22340408.439 10 0 60605 63000.00000 0 4175000.988 -10120796.934 -23031010.468 10 0 60605 63900.00000 0 6354103.319 -8263224.359 -23273978.006 10 0 60605 64800.00000 0 8669887.465 -6575825.280 -23064639.265 10 0 60605 65700.00000 0 11062299.873 -5098209.840 -22407113.074 10 0 60605 66600.00000 0 13465681.586 -3858539.618 -21314225.105 10 0 60605 67500.00000 0 15811333.317 -2872534.100 -19807255.386 10 0 60605 68400.00000 0 18030221.451 -2143012.382 -17915522.097 10 0 60605 69300.00000 0 20055712.544 -1659987.977 -15675809.757 10 0 60605 70200.00000 0 21826222.611 -1401311.349 -13131652.820 10 0 60605 71100.00000 0 23287671.014 -1333831.896 -10332488.510 10 0 60605 72000.00000 0 24395636.725 -1415029.246 -7332695.298 10 0 60605 72900.00000 0 25117127.186 -1595044.093 -4190535.709 10 0 60605 73800.00000 0 25431886.130 -1819021.972 -967024.036 10 0 60605 74700.00000 0 25333185.978 -2029670.237 2275258.831 10 0 60605 75600.00000 0 24828072.063 -2169919.589 5473380.267 10 0 60605 76500.00000 0 23937048.904 -2185577.173 8565276.691 10 0 60605 77400.00000 0 22693222.081 -2027858.684 11490956.384 10 0 60605 78300.00000 0 21140932.081 -1655692.176 14193660.966 10 0 60605 79200.00000 0 19333937.565 -1037695.938 16620963.151 10 0 60605 80100.00000 0 17333224.245 -153746.613 18725779.708 10 0 60605 81000.00000 0 15204530.919 1003929.049 20467280.443 10 0 60605 81900.00000 0 13015695.751 2430185.412 21811676.135 10 0 60605 82800.00000 0 10833933.134 4106937.001 22732870.695 10 0 60605 83700.00000 0 8723154.045 6003687.364 23212965.477 10 0 60605 84600.00000 0 6741440.832 8078586.994 23242606.384 10 0 60605 85500.00000 0 4938780.834 10279977.524 22821167.241 99